Flag for Cuba Weather past 2 weeks in Santiago de Cuba, Cuba

Now
75 °F

Passing clouds.


Feels Like: 76 °F
Forecast: 74 / 90 °F
Wind: 5 mph from Northeast

Location: Santiago De Cuba - Oriente

Current Time: Sep 3, 2014 at 1:16:08 AM

Latest Report: Sep 3, 2014 at 12:52 AM


Visibility: 6 mi

Pressure: 29.95 "Hg

Humidity: 78%

Dew point: 68 °F

Location of Santiago de CubaLocation

Historic Weather in Santiago de Cuba — Graph

°F

Santiago de Cuba temperature yesterday

Maximum temperature yesterday: 86 °F (at 12:51 PM)
Minimum temperature yesterday: 75 °F (at 2:52 AM)
Average temperature yesterday: 80 °F

Past Weeks' High & Low Weather Summary

 TemperatureHumidityPressure
High95 °F (Aug 22, 11:50 AM)94% (Aug 24, 9:50 PM)30.07 "Hg (Aug 24, 9:50 PM)
Low73 °F (Aug 31, 6:51 AM)41% (Aug 22, 11:50 AM)29.71 "Hg (Aug 24, 4:50 PM)
Average82 °F72%29.94 "Hg
* Reported Aug 18 11:50 PM — Sep 2 11:52 PM, Santiago de Cuba, Weather by CustomWeather, © 2014

Note: Actual official high and low records may vary slightly from our data, if they occured in-between our weather recording intervals... More about our weather records

Advertising

Santiago de Cuba weather history for previous 24 hours

 ConditionsComfort  
Time TempWeatherWind HumidityBarometerVisibility
11:52 PM
Sep 2
75 °FPassing clouds.6 mph78%29.95 "Hg6 mi
10:51 PM75 °FPassing clouds.6 mph78%29.95 "Hg6 mi
9:50 PM75 °FPassing clouds.7 mph74%29.95 "Hg6 mi
8:52 PM75 °FPassing clouds.7 mph74%29.95 "Hg6 mi
7:53 PM75 °FThundershowers. Scattered clouds.7 mph74%29.98 "Hg6 mi
6:52 PM81 °FThundershowers. Scattered clouds.8 mph66%29.98 "Hg6 mi
5:52 PM86 °FScattered clouds.9 mph66%29.95 "Hg6 mi
4:54 PM86 °FScattered clouds.13 mph66%29.92 "Hg6 mi
3:52 PM86 °FScattered clouds.10 mph66%29.95 "Hg6 mi
2:53 PM86 °FScattered clouds.7 mph66%29.95 "Hg6 mi
1:52 PM86 °FScattered clouds.8 mph66%29.98 "Hg6 mi
12:51 PM86 °FPassing clouds.6 mph62%29.98 "Hg6 mi
11:50 AM84 °FPartly sunny.2 mph62%29.98 "Hg6 mi
10:54 AM84 °FThundershowers. Partly sunny.3 mph62%N/A6 mi
9:52 AM84 °FScattered clouds.2 mph66%29.98 "Hg6 mi
8:53 AM81 °FScattered clouds.7 mph70%29.98 "Hg6 mi
7:50 AM77 °FPassing clouds.7 mph79%29.98 "Hg6 mi
6:52 AM75 °FPassing clouds.7 mph83%29.95 "Hg6 mi
5:52 AM75 °FPassing clouds.8 mph78%29.95 "Hg6 mi
4:52 AM75 °FPassing clouds.7 mph78%29.95 "Hg6 mi
3:52 AM75 °FPassing clouds.7 mph78%29.95 "Hg6 mi
2:52 AM75 °FPassing clouds.6 mph78%29.98 "Hg6 mi
1:56 AM77 °FPassing clouds.6 mph74%29.98 "Hg6 mi
Weather by CustomWeather, © 2014

See weather overviewHow to use our weather pages